RH
94 86 78 81 84 84 87 77 92 72 61 45 36 36 30 28 29 29 26 28 33 39 38 44 50 59 72 88 90 90 90 84 84 75 74 75 74 74 74 73 69 70 71 70
100 57 53 61 54 58 63 66 63 60 52 28 25 21 24 25 26 29 27 31 39 40 45 57 59 68 92 95 95 89 87 87 83 75 68 70 71 72 73 74 72 72 74 69
87 57 52 69 68 49 42 39 43 50 32 23 23 24 28 29 29 34 37 44 42 41 59 61 67 66 96 99 98 95 86 78 72 73 74 72 69 71 77 82 85 88 85 77
88 62 93 44 31 30 38 31 25 25 20 25 28 31 31 35 43 50 46 47 46 56 63 62 65 68 93 99 98 99 94 82 79 80 83 82 84 84 90 90 92 94 93 83
92 64 45 38 44 40 35 28 19 37 34 29 25 32 36 33 42 47 56 58 60 61 61 63 64 68 87 96 95 95 91 88 87 85 83 85 88 89 87 87 97 88 84 81
85 90 69 32 36 39 36 31 36 77 50 48 54 73 46 42 58 63 58 57 60 51 55 52 59 62 66 67 70 73 77 83 84 83 84 86 87 96 89 85 86 83 83 82
82 85 49 24 42 45 57 62 50 37 43 54 69 59 47 54 57 60 64 72 49 46 46 46 53 56 62 63 68 68 72 84 85 87 88 84 84 86 96 97 93 98 99 96
63 80 68 36 53 64 46 40 32 37 41 50 45 44 52 67 70 53 49 44 40 46 47 46 52 52 58 63 60 62 64 70 80 78 73 68 78 81 89 98 99 100 100 96
44 39 31 44 55 42 37 57 44 41 38 42 50 53 66 68 52 44 41 38 35 40 47 46 49 50 48 53 57 61 65 67 70 77 70 73 89 92 90 98 97 96 84 84
40 23 30 36 37 32 36 39 31 28 36 48 63 69 67 50 46 44 39 37 33 39 42 45 45 48 44 44 52 60 64 67 66 74 83 79 77 82 82 97 97 95 89 84
65 42 34 28 28 29 27 26 30 35 46 52 62 73 59 49 47 45 42 36 34 40 42 43 43 45 41 43 49 57 62 66 69 69 75 84 76 74 85 96 98 97 96 93
54 28 46 32 25 27 33 31 32 36 43 44 52 59 54 49 45 44 42 36 35 36 40 41 47 46 41 46 50 58 65 68 76 79 81 74 78 83 79 99 98 98 98 99
34 30 38 39 34 31 35 34 32 42 48 50 48 49 49 48 45 53 46 39 38 40 41 46 56 46 43 47 55 57 70 71 75 82 76 78 81 90 95 87 92 98 98 98
34 41 54 37 40 35 34 36 44 49 50 50 47 48 50 49 46 49 48 44 42 41 42 51 53 48 48 50 51 61 67 78 73 86 89 91 89 91 93 96 96 100 98 98
38 36 44 44 42 39 42 50 63 67 58 58 46 49 50 52 51 51 50 49 46 47 46 46 48 49 47 59 53 60 63 64 70 78 85 88 90 90 91 93 93 88 90 93
52 52 52 60 57 61 80 75 71 64 58 55 56 55 57 61 62 65 73 68 65 61 52 81 65 58 60 56 55 61 67 78 79 73 78 85 81 84 88 92 93 95 92 92
62 63 63 60 58 58 57 59 66 76 77 72 77 70 78 93 95 94 91 90 80 75 66 69 81 72 80 77 78 69 70 70 76 68 70 78 83 88 90 92 94 90 94 100
57 57 58 63 67 83 87 74 72 74 81 93 94 96 100 99 92 93 94 90 87 89 73 90 91 86 88 91 82 68 66 67 68 72 69 77 84 87 91 93 92 93 91 99
70 79 89 92 94 83 71 67 69 72 82 77 91 92 93 95 85 86 89 96 95 96 98 97 83 81 83 84 78 66 66 68 68 67 71 75 85 85 90 92 92 86 89 98
96 97 97 92 90 93 85 66 63 60 64 77 91 86 88 86 89 89 89 92 93 88 94 94 87 74 70 72 71 65 67 73 68 69 76 73 81 92 87 87 88 97 100 100
87 86 86 86 80 74 85 84 85 87 88 90 94 92 91 91 89 88 84 78 98 88 74 74 68 61 52 53 60 66 74 80 77 74 76 82 96 83 88 91 95 99 100 100
67 68 79 82 70 69 77 70 67 82 83 86 85 85 85 85 83 83 80 79 66 65 58 54 48 52 55 68 53 68 67 66 70 73 76 79 82 91 98 95 93 100 100 100
54 52 53 67 64 50 52 55 78 69 83 79 85 81 75 64 55 59 62 45 46 52 53 57 58 64 68 77 70 72 73 73 73 73 75 79 80 82 84 84 89 99 100 99
50 49 50 47 45 40 46 47 47 46 68 65 67 71 56 59 63 47 43 52 62 68 71 71 75 67 71 78 76 76 75 75 75 76 72 68 78 78 81 86 88 96 99 96
52 46 44 48 43 46 44 44 43 42 41 40 42 42 44 47 66 58 62 65 67 66 68 68 71 72 81 80 78 77 76 76 76 75 74 76 76 77 80 83 85 94 94 99
48 49 45 43 44 43 44 44 48 46 46 56 56 66 65 64 61 64 67 71 69 70 76 82 83 83 82 80 80 78 76 70 71 70 72 73 74 74 75 76 78 84 94 98
44 54 47 41 40 41 46 52 60 64 62 74 77 72 68 73 77 75 77 82 83 84 85 86 84 83 84 84 82 80 78 74 71 71 73 74 74 76 75 77 79 82 87 90
Wind_Speed
7 9 11 15 14 15 18 19 12 15 18 16 15 12 16 16 14 14 17 16 17 18 19 19 19 19 18 18 19 16 9 6 7 5 5 6 7 8 8 8 9 9 10 9
4 12 13 18 17 20 22 21 19 17 19 9 9 15 14 14 14 17 16 17 18 19 18 18 19 16 17 18 21 4 6 5 5 4 5 6 6 7 8 9 10 10 10 11
6 1 6 15 19 21 17 12 11 13 11 12 12 12 14 17 17 18 16 17 19 17 15 16 15 16 11 13 13 11 6 5 3 3 5 5 6 7 8 8 9 10 11 12
3 3 9 7 3 3 9 8 9 12 11 7 10 11 13 15 13 14 16 20 17 15 13 14 13 14 12 9 11 9 9 5 5 5 6 7 7 7 7 7 8 9 9 11
5 7 10 13 7 8 7 10 10 7 5 9 12 13 13 8 14 16 17 16 14 10 12 11 11 11 12 4 5 7 8 9 9 8 9 9 9 9 9 8 7 9 9 11
4 6 7 7 9 4 1 10 9 5 6 11 10 10 9 13 13 13 12 10 11 12 10 10 10 11 12 12 12 13 13 12 12 12 12 12 11 10 9 10 10 8 10 11
8 7 8 1 10 7 5 3 7 6 10 10 10 11 14 10 11 9 7 8 10 11 10 9 10 11 11 12 14 15 14 10 10 10 11 10 11 10 8 9 10 9 9 9
7 6 11 11 11 7 4 4 7 9 10 11 12 13 10 11 11 11 7 8 9 10 9 9 8 9 11 11 13 14 13 13 11 12 11 11 12 12 10 8 9 9 8 8
7 5 5 15 6 12 5 6 8 10 11 10 12 11 10 12 11 10 9 8 7 7 9 9 8 9 11 11 12 13 14 14 14 12 12 12 11 11 10 8 7 8 8 8
4 9 14 12 15 15 14 14 13 12 12 11 12 12 14 11 10 9 8 8 8 8 8 8 8 8 10 11 12 13 13 14 13 12 12 10 9 7 8 7 7 8 8 8
9 14 14 16 15 14 15 13 11 11 12 12 10 12 13 11 10 8 8 7 7 7 7 9 9 9 10 10 12 12 13 12 12 10 11 9 10 10 9 9 7 7 7 8
4 4 7 11 9 7 9 11 12 13 13 11 11 13 14 11 9 8 8 7 7 7 7 8 9 10 10 10 11 12 11 11 9 9 9 10 10 10 13 10 14 12 12 8
9 6 9 12 12 13 13 13 15 12 13 13 13 13 13 12 9 6 9 7 7 7 8 8 8 10 9 10 11 11 11 11 9 8 10 10 9 9 11 11 11 12 10 10
7 8 9 12 11 11 10 13 11 12 12 13 13 13 12 12 10 10 8 7 7 8 8 5 9 8 8 9 11 10 10 7 8 7 8 8 9 8 8 8 10 8 4 6
10 9 10 12 12 11 10 10 11 11 12 12 12 12 12 13 13 11 8 7 7 8 8 7 8 8 7 9 11 11 9 8 10 8 8 9 8 8 8 8 9 9 7 4
12 12 10 8 7 6 6 10 11 13 13 13 12 12 12 13 13 10 7 7 7 7 7 5 7 7 8 9 10 10 9 8 9 9 8 8 9 9 8 8 8 8 7 6
6 5 6 7 6 8 9 10 11 12 14 14 14 13 11 8 6 7 6 7 9 7 8 7 6 6 6 7 9 8 8 9 9 9 9 8 8 9 9 8 7 8 7 5
7 8 9 9 10 7 7 9 8 10 8 8 9 8 7 7 8 8 7 8 8 8 10 4 2 5 6 5 7 8 8 8 8 8 9 9 9 9 8 9 8 8 8 5
10 12 10 9 6 6 8 9 8 9 8 9 9 9 9 8 10 10 10 9 9 10 3 2 4 6 7 6 7 8 8 9 10 9 9 11 9 9 9 9 9 9 7 6
12 8 9 11 12 11 10 10 12 11 11 9 9 10 10 9 7 6 6 6 3 4 5 5 6 7 7 7 6 9 9 10 11 10 9 10 10 9 9 11 11 9 7 6
9 8 8 9 9 10 9 9 9 10 10 9 8 8 9 5 6 8 8 7 3 3 5 6 6 7 7 8 10 10 9 10 10 10 10 10 10 11 10 10 10 9 8 6
8 9 9 9 9 9 8 8 10 7 8 7 5 6 7 8 9 8 6 6 8 7 7 8 9 10 8 11 10 10 11 11 10 10 10 10 10 10 10 10 10 9 9 7
7 8 8 7 9 11 9 9 7 9 9 10 9 9 11 10 10 10 11 12 10 13 11 12 14 15 15 11 11 12 12 12 11 11 10 10 11 11 11 11 10 10 9 9
8 9 9 10 11 11 12 13 13 13 9 11 10 8 11 11 11 11 12 14 16 15 13 14 14 16 14 11 12 12 12 12 11 11 11 13 11 10 10 10 10 10 10 11
8 9 9 10 11 9 11 11 13 12 13 13 14 14 15 11 11 12 12 13 17 14 14 16 16 16 12 11 11 12 12 12 12 11 11 11 11 11 11 10 10 10 10 10
7 7 7 9 8 8 9 9 10 10 11 11 11 11 11 11 12 12 12 14 14 15 13 11 11 11 11 12 12 12 12 12 12 11 12 11 11 11 11 11 11 10 10 10
6 6 8 7 7 8 8 9 10 11 11 11 12 12 13 12 12 13 14 13 12 12 11 11 11 12 11 11 11 11 11 11 12 11 11 11 11 11 11 11 11 10 10 10
Wind_Direction
255 276 269 262 265 231 226 236 257 290 292 298 325 326 314 311 309 318 320 321 328 327 324 328 334 327 332 318 306 287 274 87 52 11 355 349 355 345 328 323 308 307 286 283
245 256 259 265 251 240 237 242 263 270 277 297 317 307 308 311 324 307 313 322 324 321 335 325 327 336 334 327 321 50 73 83 68 351 357 0 354 344 331 325 322 315 301 302
268 143 293 268 236 238 245 246 253 258 295 315 296 311 322 314 307 302 319 311 313 328 326 322 333 338 335 329 341 1 15 55 59 344 343 343 338 335 329 317 307 306 312 320
275 257 250 74 90 203 213 223 245 266 284 290 312 304 309 299 300 294 298 311 317 333 325 326 334 339 325 343 348 336 327 352 344 326 323 312 311 313 317 311 311 306 301 305
240 228 307 218 200 198 212 256 265 258 246 305 310 313 293 342 336 314 312 305 318 321 322 328 337 335 329 326 317 320 336 345 345 332 325 321 318 319 320 314 302 308 305 308
160 250 266 84 138 117 221 264 152 136 279 303 310 293 300 349 332 306 301 324 313 328 320 329 339 341 336 344 345 343 343 345 342 336 325 320 321 313 310 309 307 312 308 305
221 258 281 355 150 154 223 85 160 286 273 276 272 271 299 311 307 316 314 289 317 326 322 338 343 349 347 346 348 344 339 336 335 330 325 321 315 317 302 301 305 307 298 301
212 233 257 148 154 209 98 209 273 284 285 282 277 284 299 297 287 285 302 320 338 326 329 337 338 344 344 344 343 339 336 335 335 336 336 328 326 321 319 298 299 301 297 300
214 231 112 184 211 221 215 247 282 286 285 286 284 286 290 273 279 293 297 321 329 323 318 319 338 345 339 342 339 338 340 340 339 340 337 336 330 321 315 305 297 299 305 308
221 241 242 232 241 248 248 266 279 284 281 285 285 276 274 275 282 292 305 324 327 316 315 317 332 334 325 349 339 334 335 337 336 335 331 326 319 312 315 309 304 304 303 306
249 266 269 260 263 264 275 263 278 278 269 276 269 260 265 273 279 287 299 316 320 315 310 314 325 320 335 346 339 336 335 331 335 334 326 318 324 320 326 308 291 303 300 304
242 285 261 287 304 279 272 272 283 288 277 276 260 259 265 270 275 283 290 299 296 302 298 310 323 318 331 337 336 328 331 328 328 323 319 325 325 323 321 288 290 282 282 280
274 314 297 286 285 283 271 279 286 268 267 277 274 268 269 271 275 283 278 286 287 301 306 319 310 311 330 336 328 331 320 325 324 320 324 327 325 322 323 327 297 270 284 294
276 294 282 272 296 288 281 283 274 268 276 276 275 274 267 268 266 261 274 288 287 285 290 305 290 311 327 328 324 326 315 298 321 318 321 315 317 315 315 319 323 321 256 295
278 277 275 291 294 281 284 290 289 281 279 278 280 276 272 263 263 263 268 275 273 271 277 268 280 304 320 323 319 321 318 322 330 322 321 316 309 311 313 313 314 316 311 278
303 295 282 276 292 299 292 275 272 278 293 292 286 284 283 284 279 280 284 284 269 266 282 307 279 299 322 318 322 316 320 318 323 318 317 322 326 321 319 316 311 313 310 307
334 312 309 299 304 310 314 316 315 314 309 298 298 296 283 269 259 260 263 265 257 246 260 257 253 296 306 311 317 315 318 318 326 314 322 323 322 319 316 312 303 308 309 286
322 315 308 300 300 320 318 316 317 322 337 336 332 322 312 304 296 297 285 280 269 261 254 259 236 289 289 299 314 311 309 315 319 317 319 322 323 314 312 307 305 302 311 291
304 299 289 280 292 306 317 321 328 324 316 320 320 318 314 307 311 314 309 293 276 270 265 92 346 303 298 313 314 312 308 316 316 317 322 321 314 312 312 314 308 309 308 299
310 317 11 14 3 355 338 336 337 332 332 329 321 312 315 320 332 328 330 311 31 31 1 1 328 313 314 303 331 306 308 312 310 314 313 315 310 317 309 310 312 305 296 288
23 27 18 9 353 345 348 340 342 346 335 316 305 328 322 336 342 335 326 323 110 60 330 301 293 292 299 324 321 300 303 302 301 305 307 307 308 310 313 305 309 311 306 287
4 6 7 8 349 356 7 344 358 350 2 10 12 355 341 330 331 317 307 292 311 317 311 306 304 303 309 312 298 294 290 294 295 297 297 300 300 302 305 306 307 310 312 300
3 352 353 348 334 334 347 345 338 338 338 349 339 350 334 322 312 316 309 314 310 310 311 297 301 305 295 287 284 282 281 282 285 287 289 291 292 295 298 303 301 305 313 312
352 354 349 340 329 338 344 345 338 331 339 321 322 329 320 314 312 308 309 310 305 309 304 291 288 293 292 286 281 277 275 275 277 280 282 285 285 289 292 293 298 305 304 310
343 342 350 343 338 340 335 337 326 330 327 327 323 320 323 316 309 312 312 304 296 297 300 297 294 289 281 279 279 280 278 275 274 275 280 284 281 284 289 292 297 301 304 302
357 353 344 343 342 343 337 338 329 327 330 321 321 323 320 314 310 306 310 308 305 304 299 302 299 295 291 285 281 279 278 277 274 269 271 276 277 278 284 289 294 296 299 302
355 1 344 341 348 343 345 333 324 327 325 322 317 320 317 313 316 313 314 311 309 306 302 299 298 294 289 286 284 283 281 276 273 275 276 278 279 279 281 287 291 295 297 296